Home > Weather > Macon > Past weeks

Flag for USA Past Weather in Macon, Georgia, USA — Yesterday and Last 2 Weeks

Now
77 °F

Sunny.


Feels Like: 79 °F
Forecast: 74 / 95 °F
Wind: 5 mph from West

Location: Middle Georgia Regional Airport

Current Time: Jul 28, 2016 at 8:36:34 AM

Latest Report: Jul 28, 2016 at 7:53 AM


Visibility: 10 mi

Pressure: 30.03 "Hg

Humidity: 79%

Dew Point: 70 °F

Location of MaconLocation

Past Weather in Macon — Graph

°F

Macon Temperature Yesterday

Maximum temperature yesterday: 94 °F (at 4:53 PM)
Minimum temperature yesterday: 75 °F (at 5:53 AM)
Average temperature yesterday: 84 °F

High & Low Weather Summary for the Past Weeks

 TemperatureHumidityPressure
High98 °F (Jul 17, 3:53 PM)97% (Jul 21, 3:53 AM)30.27 "Hg (Jul 21, 3:53 AM)
Low70 °F (Jul 13, 6:53 AM)31% (Jul 14, 1:53 PM)29.93 "Hg (Jul 23, 6:53 PM)
Average83 °F67%30.07 "Hg
* Reported Jul 13 6:53 AM — Jul 28 6:53 AM, Macon, Weather by CustomWeather, © 2016

Note: Actual official high and low records may vary slightly from our data, if they occured in-between our weather recording intervals... More about our weather records

Advertising

Macon Weather History for the Previous 24 Hours

Scroll right to see more
 ConditionsComfort  
Time TempWeatherWind HumidityBarometerVisibility
6:53 AM
Thu, Jul 28
74 °FClear.5 mph85%30.02 "Hg10 mi
5:53 AM73 °FClear.5 mph90%30.02 "Hg10 mi
4:53 AM76 °FClear.No wind82%30.01 "Hg10 mi
3:53 AM77 °FClear.5 mph79%30.01 "Hg10 mi
2:53 AM78 °FClear.No wind76%30.02 "Hg10 mi
1:53 AM79 °FClear.5 mph74%30.02 "Hg10 mi
12:53 AM81 °FClear.6 mph67%30.01 "Hg10 mi
11:53 PM
Wed, Jul 27
82 °FClear.6 mph65%30.01 "Hg10 mi
10:53 PM82 °FClear.5 mph65%30.00 "Hg10 mi
9:53 PM83 °FClear.3 mph65%29.99 "Hg10 mi
8:53 PM87 °FSunny.No wind55%29.98 "Hg10 mi
7:53 PM90 °FSunny.8 mph48%29.98 "Hg10 mi
6:53 PM93 °FPartly sunny.10 mph46%29.97 "Hg10 mi
5:53 PM93 °FScattered clouds.10 mph46%29.97 "Hg10 mi
4:53 PM94 °FPassing clouds.13 mph41%29.98 "Hg10 mi
3:53 PM93 °FPartly sunny.9 mph46%30.00 "Hg10 mi
2:53 PM92 °FBroken clouds.12 mph47%30.03 "Hg10 mi
1:53 PM90 °FPartly sunny.10 mph50%30.04 "Hg10 mi
12:53 PM89 °FPartly sunny.14 mph52%30.06 "Hg10 mi
11:53 AM89 °FScattered clouds.8 mph53%30.07 "Hg10 mi
10:53 AM86 °FBroken clouds.12 mph61%30.07 "Hg10 mi
9:53 AM83 °FPartly sunny.9 mph68%30.07 "Hg10 mi
8:53 AM81 °FSunny.6 mph74%30.06 "Hg10 mi
Weather by CustomWeather, © 2016

See weather overviewHow to use our weather pages